User: anonymous   Login
Location: Izdebno
(52.6670°N, 16.2170°E)
Time: 16:54:07
(UTC+02:00)
Language:

Courier 1B Rocket - Orbit

View from above orbital plane
View from above orbital plane
View from above satellite
View from above satellite

Ground track
Ground track

The orbit data is extracted from the following two-line orbital elements,

1 00059U 60013B   24173.63512769  .00000148  00000-0  81900-4 0  9995
2 00059  28.2482 251.5020 0189095 344.5263  14.9562 13.53078295144825
Epoch (UTC): 21 June 2024 15:14:35
Eccentricity: 0.0189095
inclination: 28.2482°
perigee height: 920 km
apogee height: 1201 km
right ascension of ascending node: 251.5020°
argument of perigee: 344.5263°
revolutions per day: 13.53078295
mean anomaly at epoch: 14.9562°
orbit number at epoch: 14482

The dashed part of the orbit path shows where the satellite is in the earth's shadow,  

DLR